Weather History for KDMA - November, 2013

Change the Weather History Date:

Friday, November 15, 2013

  Actual Average Record
Temperature  
Mean Temperature 65 °F -  
Max Temperature 74 °F 71 °F 87 °F (1999)
Min Temperature 56 °F 44 °F 32 °F (1985)
Growing Degree Days 15 (Base 50)    
Moisture  
Dew Point 44 °F    
Average Humidity 45    
Maximum Humidity 60    
Minimum Humidity 32    
Precipitation  
Precipitation 0.00 in - - ()
Sea Level Pressure  
Sea Level Pressure 29.70 in    
Wind  
Wind Speed 9 mph (South)    
Max Wind Speed 20 mph    
Max Gust Speed 30 mph    
Visibility 10 miles    
Events      
Averages and records for this station are not official NWS values.
T = Trace of Precipitation, MM = Missing Value Source: NWS Daily Summary

Daily Weather History Graph

Daily Weather History Graph

Search for Another Location

Airport or City:

Trip Planner

Search our weather history database for the weather conditions in past years. The results will help you decide how hot, cold, wet, or windy it might be!

Date:

Astronomy

Nov. 15, 2013 Rise Set
Actual Time 6:52 AM MST 5:23 PM MST
Civil Twilight 6:26 AM MST 5:49 PM MST
Nautical Twilight 5:57 AM MST 6:18 PM MST
Astronomical Twilight 5:28 AM MST 6:47 PM MST
Moon 4:17 PM MST (11/15) 4:58 AM MST (11/15)
Length of Visible Light 11h 22m
Length of Day
10h 30m
Waxing Gibbous, 97% of the Moon is Illuminated
Nov 15
Waxing Gibbous
Nov 17
Full
Nov 25
Last Quarter
Dec 2
New
Dec 9
First Quarter

Hourly Weather History & Observations

Time (MST) Temp. Dew Point Humidity Pressure Visibility Wind Dir Wind Speed Gust Speed Precip Events Conditions
12:58 AM 57.9 °F 34.0 °F 41% 29.79 in 10.0 mi SE 10.4 mph - N/A   Clear
1:58 AM 56.8 °F 33.1 °F 41% 29.78 in 10.0 mi ENE 2.3 mph - N/A   Clear
2:58 AM 58.1 °F 32.9 °F 39% 29.76 in 10.0 mi SE 11.5 mph - N/A   Clear
3:58 AM 57.7 °F 34.0 °F 41% 29.76 in 10.0 mi ESE 5.8 mph - N/A   Partly Cloudy
4:58 AM 59.4 °F 38.1 °F 45% 29.76 in 10.0 mi East 5.8 mph - N/A   Clear
5:58 AM 60.3 °F 41.2 °F 49% 29.76 in 10.0 mi ENE 6.9 mph - N/A   Mostly Cloudy
6:58 AM 61.5 °F 43.5 °F 52% 29.76 in 10.0 mi East 6.9 mph - N/A   Clear
7:58 AM 63.9 °F 44.8 °F 50% 29.76 in 10.0 mi ENE 6.9 mph - N/A   Clear
8:58 AM 66.7 °F 47.3 °F 50% 29.78 in 10.0 mi East 5.8 mph - N/A   Clear
9:58 AM 68.7 °F 47.5 °F 47% 29.78 in 10.0 mi SSE 4.6 mph - N/A   Scattered Clouds
10:58 AM 71.1 °F 46.8 °F 42% 29.75 in 10.0 mi South 12.7 mph - N/A   Scattered Clouds
11:58 AM 71.6 °F 47.1 °F 42% 29.72 in 10.0 mi SSW 9.2 mph - N/A   Partly Cloudy
12:58 PM 72.9 °F 48.2 °F 42% 29.69 in 10.0 mi SSW 16.1 mph - N/A   Partly Cloudy
1:58 PM 73.0 °F 47.1 °F 40% 29.65 in 10.0 mi SSW 13.8 mph 23.0 mph N/A   Clear
2:58 PM 74.3 °F 46.2 °F 37% 29.60 in 10.0 mi SSW 18.4 mph 29.9 mph N/A   Clear
3:58 PM 74.3 °F 42.3 °F 32% 29.60 in 10.0 mi SSW 19.6 mph - N/A   Partly Cloudy
4:58 PM 73.0 °F 42.6 °F 33% 29.59 in 10.0 mi SSW 17.3 mph 29.9 mph N/A   Clear
5:58 PM 71.6 °F 44.1 °F 37% 29.59 in 10.0 mi SW 10.4 mph - N/A   Partly Cloudy
6:58 PM 70.3 °F 48.4 °F 46% 29.61 in 10.0 mi WSW 5.8 mph - N/A   Clear
7:58 PM 68.7 °F 49.8 °F 51% 29.62 in 10.0 mi SSW 11.5 mph - N/A   Clear
8:58 PM 67.5 °F 50.4 °F 54% 29.63 in 10.0 mi SSW 11.5 mph - N/A   Clear
9:58 PM 66.6 °F 50.2 °F 56% 29.65 in 10.0 mi SW 15.0 mph 19.6 mph N/A   Partly Cloudy
10:58 PM 66.0 °F 49.6 °F 55% 29.65 in 10.0 mi West 3.5 mph - N/A   Clear
11:58 PM 64.9 °F 50.7 °F 60% 29.67 in 10.0 mi West 5.8 mph - N/A   Scattered Clouds